Weather History for Atka, AK

Change the Weather History Date:

Saturday, November 24, 2012

  Actual Average (PADK) Record (PADK)
Temperature  
Mean Temperature 36 °F -  
Max Temperature 39 °F 41 °F 56 °F (1970)
Min Temperature 32 °F 32 °F 19 °F (1962)
Degree Days  
Heating Degree Days 30    
Moisture  
Dew Point -13 °F    
Average Humidity 12    
Maximum Humidity 13    
Minimum Humidity 11    
Precipitation  
Precipitation 0.00 in - - ()
Sea Level Pressure  
Sea Level Pressure 30.01 in    
Wind  
Wind Speed 5 mph (SE)    
Max Wind Speed 17 mph    
Max Gust Speed 22 mph    
Visibility 8 miles    
Events      
Averages and records for this station are not official NWS values.
T = Trace of Precipitation, MM = Missing Value Source: NWS Daily Summary

Daily Weather History Graph

Daily Weather History Graph

Search for Another Location

Airport:

Trip Planner

Search our weather history database for the weather conditions in past years. The results will help you decide how hot, cold, wet, or windy it might be!

Date:

Astronomy

Nov. 24, 2012 Rise Set
Actual Time 9:14 AM HAST 5:33 PM HAST
Civil Twilight 8:34 AM HAST 6:12 PM HAST
Nautical Twilight 7:52 AM HAST 6:54 PM HAST
Astronomical Twilight 7:11 AM HAST 7:35 PM HAST
Moon 3:43 PM HAST (11/24) 5:23 AM HAST (11/24)
Length of Visible Light 9h 37m
Length of Day
8h 18m
Waxing Gibbous, 88% of the Moon is Illuminated
Nov 24
Waxing Gibbous
Nov 28
Full
Dec 6
Last Quarter
Dec 12
New
Dec 19
First Quarter

Hourly Weather History & Observations

Time (HAST) Temp. Windchill Dew Point Humidity Pressure Visibility Wind Dir Wind Speed Gust Speed Precip Events Conditions
12:16 AM 35.6 °F 29.2 °F -13.0 °F 12% 29.95 in 10.0 mi ESE 8.1 mph - N/A   Overcast
12:36 AM 35.6 °F 32.8 °F -13.0 °F 12% 29.95 in 6.0 mi ESE 3.5 mph - N/A   Overcast
12:56 AM 35.6 °F - - N/A% 29.96 in 8.0 mi Calm Calm - N/A   Overcast
1:16 AM 33.8 °F 28.6 °F -14.8 °F 12% 29.97 in 10.0 mi SSW 5.8 mph - N/A   Overcast
1:36 AM 33.8 °F 27.0 °F -14.8 °F 12% 29.97 in 10.0 mi SE 8.1 mph - N/A   Overcast
1:56 AM 33.8 °F 29.6 °F -14.8 °F 12% 29.98 in 10.0 mi SSE 4.6 mph - N/A   Overcast
2:16 AM 33.8 °F 30.8 °F -14.8 °F 12% 29.99 in 10.0 mi SSW 3.5 mph - N/A   Overcast
2:36 AM 33.8 °F 28.6 °F -14.8 °F 12% 29.99 in 10.0 mi South 5.8 mph - N/A   Overcast
2:56 AM 33.8 °F 29.6 °F -14.8 °F 12% 30.00 in 10.0 mi SSW 4.6 mph - N/A   Overcast
3:16 AM 33.8 °F 30.8 °F -14.8 °F 12% 29.99 in 7.0 mi SSE 3.5 mph - N/A   Overcast
3:36 AM 33.8 °F 28.6 °F -14.8 °F 12% 30.00 in 4.0 mi South 5.8 mph - N/A   Overcast
3:56 AM 33.8 °F 28.6 °F -14.8 °F 12% 30.01 in 3.0 mi South 5.8 mph - N/A   Overcast
4:16 AM 33.8 °F 29.6 °F -14.8 °F 12% 30.01 in 2.5 mi South 4.6 mph - N/A   Overcast
4:36 AM 33.8 °F 29.6 °F -14.8 °F 12% 30.00 in 5.0 mi South 4.6 mph - N/A   Overcast
4:56 AM 33.8 °F 27.7 °F -14.8 °F 12% 30.01 in 5.0 mi South 6.9 mph - N/A   Overcast
5:16 AM 32.0 °F 27.5 °F -14.8 °F 13% 30.01 in 3.0 mi SSE 4.6 mph - N/A   Overcast
5:36 AM 32.0 °F 26.4 °F -14.8 °F 13% 30.02 in 5.0 mi SSW 5.8 mph - N/A   Mostly Cloudy
5:56 AM 32.0 °F 25.6 °F -14.8 °F 13% 30.03 in 9.0 mi South 6.9 mph - N/A   Overcast
6:16 AM 32.0 °F 26.4 °F -14.8 °F 13% 30.03 in 10.0 mi South 5.8 mph - N/A   Overcast
6:36 AM 32.0 °F 27.5 °F -16.6 °F 12% 30.04 in 10.0 mi SSW 4.6 mph - N/A   Overcast
6:56 AM 32.0 °F 27.5 °F -14.8 °F 13% 30.03 in 10.0 mi South 4.6 mph - N/A   Overcast
7:16 AM 32.0 °F 27.5 °F -14.8 °F 13% 30.03 in 10.0 mi South 4.6 mph - N/A   Overcast
7:36 AM 32.0 °F - -16.6 °F 12% 30.03 in 10.0 mi Calm Calm - N/A   Overcast
7:56 AM 32.0 °F 27.5 °F -14.8 °F 13% 30.04 in 10.0 mi South 4.6 mph - N/A   Overcast
8:16 AM 32.0 °F 27.5 °F -14.8 °F 13% 30.04 in 10.0 mi SSW 4.6 mph - N/A   Overcast
8:36 AM 32.0 °F 27.5 °F -14.8 °F 13% 30.04 in 10.0 mi SSW 4.6 mph - N/A   Overcast
8:56 AM 32.0 °F 28.7 °F -14.8 °F 13% 30.04 in 10.0 mi South 3.5 mph - N/A   Overcast
9:16 AM 33.8 °F 28.6 °F -14.8 °F 12% 30.05 in 10.0 mi South 5.8 mph - N/A   Overcast
9:36 AM 33.8 °F 30.8 °F -14.8 °F 12% 30.06 in 10.0 mi SSW 3.5 mph - N/A   Overcast
9:56 AM 33.8 °F - -14.8 °F 12% 30.06 in 9.0 mi Calm Calm - N/A   Overcast
10:16 AM 33.8 °F 30.8 °F -14.8 °F 12% 30.07 in 10.0 mi SSW 3.5 mph - N/A   Overcast
10:36 AM 33.8 °F - -14.8 °F 12% 30.07 in 8.0 mi Calm Calm - N/A   Overcast
10:56 AM 33.8 °F - -14.8 °F 12% 30.07 in 5.0 mi Calm Calm - N/A   Overcast
11:16 AM 33.8 °F - -14.8 °F 12% 30.07 in 10.0 mi Calm Calm - N/A   Overcast
11:36 AM 33.8 °F - -14.8 °F 12% 30.07 in 8.0 mi Calm Calm - N/A   Overcast
11:56 AM 33.8 °F - -14.8 °F 12% 30.08 in 7.0 mi Calm Calm - N/A   Overcast
12:16 PM 35.6 °F - -14.8 °F 11% 30.07 in 10.0 mi Calm Calm - N/A   Overcast
12:36 PM 35.6 °F - -14.8 °F 11% 30.07 in 10.0 mi Calm Calm - N/A   Overcast
12:56 PM 35.6 °F 30.7 °F -13.0 °F 12% 30.05 in 10.0 mi East 5.8 mph - N/A   Overcast
1:16 PM 35.6 °F 30.7 °F -13.0 °F 12% 30.05 in 10.0 mi ESE 5.8 mph - N/A   Overcast
1:36 PM 35.6 °F 31.7 °F -13.0 °F 12% 30.04 in 10.0 mi East 4.6 mph - N/A   Overcast
1:56 PM 35.6 °F 31.7 °F -13.0 °F 12% 30.04 in 10.0 mi East 4.6 mph - N/A   Overcast
2:16 PM 35.6 °F 30.7 °F -13.0 °F 12% 30.03 in 10.0 mi East 5.8 mph - N/A   Overcast
2:36 PM 35.6 °F 30.7 °F -13.0 °F 12% 30.03 in 5.0 mi East 5.8 mph - N/A   Overcast
2:56 PM 35.6 °F 30.7 °F -13.0 °F 12% 30.03 in 9.0 mi ESE 5.8 mph - N/A   Overcast
3:16 PM 35.6 °F 31.7 °F -13.0 °F 12% 30.02 in 2.5 mi East 4.6 mph - N/A   Overcast
3:36 PM 35.6 °F 29.9 °F -13.0 °F 12% 30.02 in 2.0 mi ESE 6.9 mph - N/A   Overcast
3:56 PM 35.6 °F 30.7 °F -13.0 °F 12% 30.01 in 1.5 mi East 5.8 mph - N/A   Overcast
4:16 PM 35.6 °F 30.7 °F -13.0 °F 12% 30.01 in 1.5 mi ENE 5.8 mph - N/A   Overcast
4:36 PM 35.6 °F 30.7 °F -13.0 °F 12% 30.01 in 3.0 mi ENE 5.8 mph - N/A   Overcast
4:56 PM 35.6 °F 31.7 °F -13.0 °F 12% 30.01 in 4.0 mi ENE 4.6 mph - N/A   Overcast
5:16 PM 35.6 °F 29.9 °F -13.0 °F 12% 30.00 in 10.0 mi East 6.9 mph - N/A   Overcast
5:36 PM 37.4 °F 33.8 °F -11.2 °F 12% 30.00 in 10.0 mi East 4.6 mph - N/A   Overcast
5:56 PM 37.4 °F 33.8 °F -11.2 °F 12% 30.00 in 10.0 mi ESE 4.6 mph - N/A   Overcast
6:16 PM 37.4 °F 34.9 °F -11.2 °F 12% 30.01 in 10.0 mi ESE 3.5 mph - N/A   Overcast
6:36 PM 37.4 °F 34.9 °F -11.2 °F 12% 30.00 in 10.0 mi ESE 3.5 mph - N/A   Overcast
6:56 PM 37.4 °F 32.8 °F -11.2 °F 12% 30.00 in 10.0 mi East 5.8 mph - N/A   Overcast
7:16 PM 37.4 °F 32.1 °F -11.2 °F 12% 30.00 in 10.0 mi East 6.9 mph - N/A   Overcast
7:36 PM 37.4 °F 31.4 °F -11.2 °F 12% 30.00 in 10.0 mi ESE 8.1 mph - N/A   Overcast
7:56 PM 39.2 °F 35.0 °F -11.2 °F 11% 29.99 in 10.0 mi ESE 5.8 mph - N/A   Overcast
8:16 PM 37.4 °F 32.1 °F -11.2 °F 12% 29.99 in 10.0 mi SSE 6.9 mph - N/A   Overcast
8:36 PM 39.2 °F 33.6 °F -11.2 °F 11% 29.99 in 10.0 mi ESE 8.1 mph - N/A   Overcast
8:56 PM 39.2 °F 33.6 °F -11.2 °F 11% 29.98 in 10.0 mi ESE 8.1 mph - N/A   Overcast
9:16 PM 39.2 °F 32.5 °F -9.4 °F 12% 29.98 in 10.0 mi SE 10.4 mph 16.1 mph N/A   Overcast
9:36 PM 39.2 °F 32.0 °F -9.4 °F 12% 29.98 in 10.0 mi ESE 11.5 mph - N/A   Overcast
9:56 PM 39.2 °F 32.5 °F -9.4 °F 12% 29.98 in 10.0 mi ESE 10.4 mph - N/A   Overcast
10:16 PM 39.2 °F 30.8 °F -9.4 °F 12% 29.97 in 8.0 mi ESE 15.0 mph - N/A   Overcast
10:36 PM 39.2 °F 30.5 °F -9.4 °F 12% 29.97 in 9.0 mi SE 16.1 mph 21.9 mph N/A   Overcast
10:56 PM 39.2 °F 30.2 °F -9.4 °F 12% 29.96 in 10.0 mi ESE 17.3 mph 21.9 mph N/A   Overcast
11:16 PM 39.2 °F 30.2 °F -9.4 °F 12% 29.96 in 10.0 mi ESE 17.3 mph - N/A   Overcast
11:36 PM 39.2 °F 30.5 °F -9.4 °F 12% 29.96 in 9.0 mi ESE 16.1 mph - N/A   Overcast
11:56 PM 39.2 °F 31.2 °F -9.4 °F 12% 29.95 in 10.0 mi ESE 13.8 mph - N/A   Overcast